STARLINK-1623, 46129

Orbit data source: Space-Track

STARLINK-1623, 46129 is a payload satellite owned by SpaceX/Seattle (US) in LEO that was launched on Tue, 18 Aug 2020 UTC via an FALCON 9 launch vehicle from the Air Force Eastern Test Range (AFETR). Payload-class satellites include a variety of spacecraft equipped with specific instruments for various scientific and technological missions. These include communications satellites like Starlink; space stations such as the ISS; scientific satellites like the Hubble; Earth observation satellites from companies like Planet Labs, Umbra, and HawkEye 360; GPS; miniature CubeSats for education and research; and military/defense satellites.

Loading next visibility...
Identifier
46129, 2020-057N
Orbit
LEO
Country
Flag of USUS
Related business
Manufacturer
SpaceX/Seattle
Mission
Operational Commercial Communications
Bus & Motor
STARLINK, Unknown motor
Mass
260 kg wet, ~248 kg dry
Launch date (UTC)
2020-08-18 (5 years ago)
Launch vehicle
FALCON 9
Launch site
Air Force Eastern Test Range (AFETR)
Object type
Payload
Rocket body
Debris
Shape & HBR
Box + 1 Pan, 4.4 m
Radar Cross Section
13.562 m², Large (>1 m²)

Expand to show TLE details & history
Last TLE update: 15 hours ago

TLE from 15 hours ago
0 STARLINK-1623
1 46129U 20057N   25261.21681581  .00002825  00000-0  20853-3 0  9992
2 46129  53.0561 330.8805 0001151  94.6085 265.5036 15.06389995280632
Epoch: 2025-09-18T05:12Z
TLE epoch observation values (Epoch: 2025-09-18T05:12:12.886Z)
Latitude
0.00004°
Longitude
-104.55475°
Altitude
548.184 km
Speed
7.589 km/s
True Right ascension
22h 03m 31s
True Declination
0° 00' 00"
Sunlit
Object was in full shadow at epoch
Visualization orbit readout
Latitude
Unknown
Longitude
Unknown
Altitude
Unknown
Speed
Unknown
Apparent Right ascension
Unknown
Apparent Declination
Unknown
Sunlit
N/A
Visualization observer readout
Local Sidereal Time
13:00:26
Azimuth
Unknown
Elevation
Unknown
Doppler factor
Unknown
Orbital elements
Apogee altitude
548.31 km
Perigee altitude
546.716 km
Semi-major axis
6,925.65 km
Eccentricity
0.00012
Inclination
53.0561°
RAAN
330.8805°
Arg. of periapsis
94.6085°
True anomaly
265.49045°
Mean anomaly
265.5036°
Eccentric anomaly
265.49703°
Mean motion
3.76576 °/min
Orbital period
95.6 mins
BSTAR
0.00020853
Loading maneuver chart data...
Computing Atmospheric mass density...

Documentation

Showing up to 5 results
|